Location: Unspecified
(0.0000°N, 0.0000°E)
Time: 05:30:18
(UTC+00:00)

TET - Visible Passes

Search period start: 21 November 2018 00:00
Search period end: 01 December 2018 00:00
Orbit: 419 x 423 km, 97.6° (Epoch: 19 November)

Date Brightness Start Highest point End Pass type
(mag) Time Alt. Az. Time Alt. Az. Time Alt. Az.
21 Nov 6.6 05:11:48 10° NNW 05:14:15 20° W 05:16:42 10° SW visible
22 Nov 6.1 04:27:30 10° NNE 04:30:38 52° E 04:33:46 10° S visible
23 Nov 6.8 05:16:43 10° NW 05:18:54 17° WNW 05:21:06 10° WSW visible
24 Nov 5.7 04:32:06 10° NNE 04:35:16 64° E 04:38:28 10° S visible
25 Nov 7.0 05:21:40 10° NW 05:23:33 15° W 05:25:25 10° WSW visible
26 Nov 5.3 04:36:42 10° NNE 04:39:54 79° E 04:43:07 10° S visible
27 Nov 8.7 03:55:01 10° ENE 03:56:17 12° ESE 03:57:32 10° SE visible
28 Nov 5.1 04:41:18 10° N 04:44:30 85° W 04:47:43 10° SSW visible
29 Nov 8.6 03:59:06 10° ENE 04:00:52 14° ESE 04:02:37 10° SE visible
30 Nov 5.1 04:45:53 10° N 04:49:04 70° WNW 04:52:17 10° SSW visible
